Time,TemperatureF,DewpointF,PressureIn,WindDirection,WindDirectionDegrees,WindSpeedMPH,WindSpeedGustMPH,Humidity,HourlyPrecipIn,Conditions,Clouds,dailyrainin,SoftwareType,DateUTC
2013-07-04 00:02:00,53.2,52.9,29.74,West,273,0.0,0.0,99,0.00,,,0.00,Wunderground v.1.15,2013-07-04 07:02:00,
2013-07-04 00:08:00,53.2,53.2,29.74,West,273,0.0,0.0,100,0.00,,,0.00,Wunderground v.1.15,2013-07-04 07:08:00,
2013-07-04 00:13:00,53.1,53.1,29.74,West,273,0.0,0.0,100,0.00,,,0.00,Wunderground v.1.15,2013-07-04 07:13:00,
2013-07-04 00:18:00,53.1,53.1,29.73,West,273,0.0,0.0,100,0.00,,,0.00,Wunderground v.1.15,2013-07-04 07:18:00,
2013-07-04 00:24:00,52.9,52.9,29.73,West,273,0.0,0.0,100,0.00,,,0.00,Wunderground v.1.15,2013-07-04 07:24:00,
2013-07-04 00:29:00,52.9,52.9,29.73,West,273,0.0,0.0,100,0.00,,,0.00,Wunderground v.1.15,2013-07-04 07:29:00,
2013-07-04 00:34:00,53.1,53.1,29.73,West,273,0.0,0.0,100,0.00,,,0.00,Wunderground v.1.15,2013-07-04 07:34:00,
2013-07-04 00:40:00,53.1,53.1,29.73,West,273,0.0,0.0,100,0.00,,,0.00,Wunderground v.1.15,2013-07-04 07:40:00,
2013-07-04 00:45:00,53.1,53.1,29.74,West,273,0.0,0.0,100,0.00,,,0.00,Wunderground v.1.15,2013-07-04 07:45:00,
2013-07-04 00:50:00,53.1,53.1,29.74,West,273,0.0,0.0,100,0.00,,,0.00,Wunderground v.1.15,2013-07-04 07:50:00,
2013-07-04 00:55:00,53.2,53.2,29.74,West,273,0.0,0.0,100,0.00,,,0.00,Wunderground v.1.15,2013-07-04 07:55:00,
2013-07-04 01:01:00,53.2,53.2,29.74,West,273,0.0,0.0,100,0.00,,,0.00,Wunderground v.1.15,2013-07-04 08:01:00,
2013-07-04 01:06:00,53.2,53.2,29.74,West,273,0.0,0.0,100,0.00,,,0.00,Wunderground v.1.15,2013-07-04 08:06:00,
2013-07-04 01:12:00,53.1,53.1,29.74,West,273,0.0,0.0,100,0.00,,,0.00,Wunderground v.1.15,2013-07-04 08:12:00,
2013-07-04 01:17:00,53.1,53.1,29.74,West,273,0.0,0.0,100,0.00,,,0.00,Wunderground v.1.15,2013-07-04 08:17:00,
2013-07-04 01:22:00,52.9,52.9,29.74,West,273,0.0,0.0,100,0.00,,,0.00,Wunderground v.1.15,2013-07-04 08:22:00,
2013-07-04 01:28:00,52.8,52.8,29.74,West,273,0.0,0.0,100,0.00,,,0.00,Wunderground v.1.15,2013-07-04 08:28:00,
2013-07-04 01:33:00,52.8,52.8,29.74,West,273,0.0,0.0,100,0.00,,,0.00,Wunderground v.1.15,2013-07-04 08:33:00,
2013-07-04 01:38:00,52.8,52.8,29.74,West,273,0.0,0.0,100,0.00,,,0.00,Wunderground v.1.15,2013-07-04 08:38:00,
2013-07-04 01:43:00,52.8,52.8,29.74,West,273,0.0,0.0,100,0.00,,,0.00,Wunderground v.1.15,2013-07-04 08:43:00,
2013-07-04 01:49:00,52.8,52.8,29.74,West,273,0.0,0.0,100,0.00,,,0.00,Wunderground v.1.15,2013-07-04 08:49:00,
2013-07-04 01:54:00,52.6,52.6,29.74,West,273,0.0,0.0,100,0.00,,,0.00,Wunderground v.1.15,2013-07-04 08:54:00,
2013-07-04 01:59:00,52.6,52.6,29.74,West,273,0.0,0.0,100,0.00,,,0.00,Wunderground v.1.15,2013-07-04 08:59:00,
2013-07-04 02:04:00,52.8,52.8,29.74,West,273,0.0,0.0,100,0.00,,,0.00,Wunderground v.1.15,2013-07-04 09:04:00,
2013-07-04 02:09:00,52.8,52.8,29.74,West,273,0.0,0.0,100,0.00,,,0.00,Wunderground v.1.15,2013-07-04 09:09:00,
2013-07-04 02:14:00,52.8,52.8,29.74,West,273,0.0,0.0,100,0.00,,,0.00,Wunderground v.1.15,2013-07-04 09:14:00,
2013-07-04 02:19:00,52.9,52.9,29.74,West,273,0.0,0.0,100,0.00,,,0.00,Wunderground v.1.15,2013-07-04 09:19:00,
2013-07-04 02:24:00,52.9,52.9,29.74,West,273,0.0,0.0,100,0.00,,,0.00,Wunderground v.1.15,2013-07-04 09:24:00,
2013-07-04 02:29:00,52.9,52.9,29.74,West,273,0.0,0.0,100,0.00,,,0.00,Wunderground v.1.15,2013-07-04 09:29:00,
2013-07-04 02:34:00,52.8,52.8,29.73,West,273,0.0,0.0,100,0.00,,,0.00,Wunderground v.1.15,2013-07-04 09:34:00,
2013-07-04 02:39:00,52.8,52.8,29.73,West,273,0.0,0.0,100,0.00,,,0.00,Wunderground v.1.15,2013-07-04 09:39:00,
2013-07-04 02:44:00,52.8,52.8,29.73,West,273,0.0,0.0,100,0.00,,,0.00,Wunderground v.1.15,2013-07-04 09:44:00,
2013-07-04 02:49:00,52.6,52.6,29.73,West,273,0.0,0.0,100,0.00,,,0.00,Wunderground v.1.15,2013-07-04 09:49:00,
2013-07-04 02:54:00,52.5,52.5,29.73,West,273,0.0,0.0,100,0.00,,,0.00,Wunderground v.1.15,2013-07-04 09:54:00,
2013-07-04 02:59:00,52.3,52.3,29.73,West,273,0.0,0.0,100,0.00,,,0.00,Wunderground v.1.15,2013-07-04 09:59:00,
2013-07-04 03:04:00,52.3,52.3,29.73,West,273,0.0,0.0,100,0.00,,,0.00,Wunderground v.1.15,2013-07-04 10:04:00,
2013-07-04 03:09:00,52.2,52.2,29.73,West,273,0.0,0.0,100,0.00,,,0.00,Wunderground v.1.15,2013-07-04 10:09:00,
2013-07-04 03:14:00,52.2,52.2,29.73,West,273,0.0,0.0,100,0.00,,,0.00,Wunderground v.1.15,2013-07-04 10:14:00,
2013-07-04 03:19:00,52.0,52.0,29.73,West,273,0.0,0.0,100,0.00,,,0.00,Wunderground v.1.15,2013-07-04 10:19:00,
2013-07-04 03:24:00,52.2,52.2,29.73,West,273,0.0,0.0,100,0.00,,,0.00,Wunderground v.1.15,2013-07-04 10:24:00,
2013-07-04 03:29:00,52.2,52.2,29.73,West,273,0.0,0.0,100,0.00,,,0.00,Wunderground v.1.15,2013-07-04 10:29:00,
2013-07-04 03:34:00,52.3,52.3,29.72,West,273,0.0,0.0,100,0.00,,,0.00,Wunderground v.1.15,2013-07-04 10:34:00,
2013-07-04 03:39:00,52.3,52.3,29.72,West,273,0.0,0.0,100,0.00,,,0.00,Wunderground v.1.15,2013-07-04 10:39:00,
2013-07-04 03:44:00,52.5,52.5,29.72,West,273,0.0,0.0,100,0.00,,,0.00,Wunderground v.1.15,2013-07-04 10:44:00,
2013-07-04 03:49:00,52.5,52.5,29.72,West,273,0.0,0.0,100,0.00,,,0.00,Wunderground v.1.15,2013-07-04 10:49:00,
2013-07-04 03:54:00,52.5,52.5,29.72,West,273,0.0,0.0,100,0.00,,,0.00,Wunderground v.1.15,2013-07-04 10:54:00,
2013-07-04 03:59:00,52.8,52.8,29.72,West,273,0.0,0.0,100,0.00,,,0.00,Wunderground v.1.15,2013-07-04 10:59:00,
2013-07-04 04:04:00,52.9,52.9,29.72,West,273,0.0,0.0,100,0.00,,,0.00,Wunderground v.1.15,2013-07-04 11:04:00,
2013-07-04 04:09:00,53.2,53.2,29.72,ESE,122,2.0,3.0,100,0.00,,,0.00,Wunderground v.1.15,2013-07-04 11:09:00,
2013-07-04 04:14:00,53.2,53.2,29.72,ESE,122,0.0,3.0,100,0.00,,,0.00,Wunderground v.1.15,2013-07-04 11:14:00,
2013-07-04 04:19:00,53.2,53.2,29.72,ESE,117,2.0,3.0,100,0.00,,,0.00,Wunderground v.1.15,2013-07-04 11:19:00,
2013-07-04 04:24:00,53.2,53.2,29.72,ESE,103,3.0,4.0,100,0.00,,,0.00,Wunderground v.1.15,2013-07-04 11:24:00,
2013-07-04 04:29:00,53.2,53.2,29.72,East,101,0.0,4.0,100,0.00,,,0.00,Wunderground v.1.15,2013-07-04 11:29:00,
2013-07-04 04:34:00,53.2,53.2,29.72,East,101,0.0,2.0,100,0.00,,,0.00,Wunderground v.1.15,2013-07-04 11:34:00,
2013-07-04 04:39:00,53.2,53.2,29.72,East,101,0.0,2.0,100,0.00,,,0.00,Wunderground v.1.15,2013-07-04 11:39:00,
2013-07-04 04:44:00,53.2,53.2,29.71,East,101,0.0,0.0,100,0.00,,,0.00,Wunderground v.1.15,2013-07-04 11:44:00,
2013-07-04 04:49:00,53.2,53.2,29.71,East,101,0.0,1.0,100,0.00,,,0.00,Wunderground v.1.15,2013-07-04 11:49:00,
2013-07-04 04:54:00,53.2,53.2,29.71,East,101,0.0,0.0,100,0.00,,,0.00,Wunderground v.1.15,2013-07-04 11:54:00,
2013-07-04 04:59:00,53.2,53.2,29.72,East,101,0.0,0.0,100,0.00,,,0.00,Wunderground v.1.15,2013-07-04 11:59:00,
2013-07-04 05:04:00,53.2,53.2,29.72,East,101,0.0,0.0,100,0.00,,,0.00,Wunderground v.1.15,2013-07-04 12:04:00,
2013-07-04 05:10:00,53.2,53.2,29.72,East,101,0.0,0.0,100,0.00,,,0.00,Wunderground v.1.15,2013-07-04 12:10:00,
2013-07-04 05:15:00,53.2,53.2,29.72,East,101,0.0,0.0,100,0.00,,,0.00,Wunderground v.1.15,2013-07-04 12:15:00,
2013-07-04 05:20:00,53.2,53.2,29.72,East,101,0.0,0.0,100,0.00,,,0.00,Wunderground v.1.15,2013-07-04 12:20:00,
2013-07-04 05:25:00,53.2,53.2,29.72,East,101,0.0,0.0,100,0.00,,,0.00,Wunderground v.1.15,2013-07-04 12:25:00,
2013-07-04 05:30:00,53.3,53.3,29.72,East,101,0.0,1.0,100,0.00,,,0.00,Wunderground v.1.15,2013-07-04 12:30:00,
2013-07-04 05:35:00,53.3,53.3,29.72,East,101,0.0,2.0,100,0.00,,,0.00,Wunderground v.1.15,2013-07-04 12:35:00,
2013-07-04 05:40:00,53.2,53.2,29.72,East,101,0.0,2.0,100,0.00,,,0.00,Wunderground v.1.15,2013-07-04 12:40:00,
2013-07-04 05:45:00,53.2,53.2,29.72,East,101,0.0,0.0,100,0.00,,,0.00,Wunderground v.1.15,2013-07-04 12:45:00,
2013-07-04 05:50:00,53.1,53.1,29.72,East,101,0.0,0.0,100,0.00,,,0.00,Wunderground v.1.15,2013-07-04 12:50:00,
2013-07-04 05:55:00,53.1,53.1,29.72,East,101,0.0,0.0,100,0.00,,,0.00,Wunderground v.1.15,2013-07-04 12:55:00,
2013-07-04 06:00:00,52.9,52.9,29.72,East,101,0.0,0.0,100,0.00,,,0.00,Wunderground v.1.15,2013-07-04 13:00:00,
2013-07-04 06:05:00,52.8,52.8,29.72,East,101,0.0,0.0,100,0.00,,,0.00,Wunderground v.1.15,2013-07-04 13:05:00,
2013-07-04 06:10:00,52.8,52.8,29.72,East,101,0.0,0.0,100,0.00,,,0.00,Wunderground v.1.15,2013-07-04 13:10:00,
2013-07-04 06:15:00,52.6,52.6,29.72,East,101,0.0,0.0,100,0.00,,,0.00,Wunderground v.1.15,2013-07-04 13:15:00,
2013-07-04 06:20:00,52.5,52.5,29.72,East,101,0.0,0.0,100,0.00,,,0.00,Wunderground v.1.15,2013-07-04 13:20:00,
2013-07-04 06:25:00,52.6,52.6,29.72,East,101,0.0,0.0,100,0.00,,,0.00,Wunderground v.1.15,2013-07-04 13:25:00,
2013-07-04 06:30:00,52.6,52.6,29.72,East,101,0.0,0.0,100,0.00,,,0.00,Wunderground v.1.15,2013-07-04 13:30:00,
2013-07-04 06:35:00,52.8,52.8,29.72,East,101,0.0,0.0,100,0.00,,,0.00,Wunderground v.1.15,2013-07-04 13:35:00,
2013-07-04 06:40:00,52.9,52.9,29.72,East,101,0.0,0.0,100,0.00,,,0.00,Wunderground v.1.15,2013-07-04 13:40:00,
2013-07-04 06:45:00,53.2,53.2,29.73,East,101,0.0,0.0,100,0.00,,,0.00,Wunderground v.1.15,2013-07-04 13:45:00,
2013-07-04 06:50:00,53.3,53.3,29.73,East,101,0.0,0.0,100,0.00,,,0.00,Wunderground v.1.15,2013-07-04 13:50:00,
2013-07-04 06:55:00,53.6,53.6,29.73,East,101,0.0,0.0,100,0.00,,,0.00,Wunderground v.1.15,2013-07-04 13:55:00,
2013-07-04 07:00:00,54.1,54.1,29.73,East,101,0.0,1.0,100,0.00,,,0.00,Wunderground v.1.15,2013-07-04 14:00:00,
2013-07-04 07:05:00,54.4,54.4,29.73,East,101,0.0,1.0,100,0.00,,,0.00,Wunderground v.1.15,2013-07-04 14:05:00,
2013-07-04 07:10:00,54.8,54.8,29.73,East,101,0.0,0.0,100,0.00,,,0.00,Wunderground v.1.15,2013-07-04 14:10:00,
2013-07-04 07:15:00,55.1,55.1,29.73,East,101,1.0,2.0,100,0.00,,,0.00,Wunderground v.1.15,2013-07-04 14:15:00,
2013-07-04 07:20:00,55.3,55.3,29.73,East,101,0.0,0.0,100,0.00,,,0.00,Wunderground v.1.15,2013-07-04 14:20:00,
2013-07-04 07:25:00,55.6,55.6,29.73,East,101,0.0,2.0,100,0.00,,,0.00,Wunderground v.1.15,2013-07-04 14:25:00,
2013-07-04 07:30:00,56.0,56.0,29.73,East,96,1.0,1.0,100,0.00,,,0.00,Wunderground v.1.15,2013-07-04 14:30:00,
2013-07-04 07:35:00,56.0,56.0,29.73,East,92,0.0,4.0,100,0.00,,,0.00,Wunderground v.1.15,2013-07-04 14:35:00,
2013-07-04 07:40:00,56.6,56.6,29.73,ESE,106,0.0,1.0,100,0.00,,,0.00,Wunderground v.1.15,2013-07-04 14:40:00,
2013-07-04 07:45:00,57.2,57.2,29.73,ESE,107,0.0,3.0,100,0.00,,,0.00,Wunderground v.1.15,2013-07-04 14:45:00,
2013-07-04 07:50:00,57.5,57.5,29.73,East,89,2.0,2.0,100,0.00,,,0.00,Wunderground v.1.15,2013-07-04 14:50:00,
2013-07-04 07:55:00,58.3,58.0,29.73,East,89,0.0,2.0,99,0.00,,,0.00,Wunderground v.1.15,2013-07-04 14:55:00,
2013-07-04 08:00:00,59.2,58.6,29.73,East,89,1.0,1.0,98,0.00,,,0.00,Wunderground v.1.15,2013-07-04 15:00:00,
2013-07-04 08:05:00,59.6,58.2,29.73,ESE,122,2.0,3.0,95,0.00,,,0.00,Wunderground v.1.15,2013-07-04 15:05:00,
2013-07-04 08:10:00,60.1,58.4,29.73,ENE,77,0.0,1.0,94,0.00,,,0.00,Wunderground v.1.15,2013-07-04 15:10:00,
2013-07-04 08:15:00,60.9,58.6,29.73,ESE,117,2.0,3.0,92,0.00,,,0.00,Wunderground v.1.15,2013-07-04 15:15:00,
2013-07-04 08:20:00,61.2,58.2,29.73,ESE,117,0.0,1.0,90,0.00,,,0.00,Wunderground v.1.15,2013-07-04 15:20:00,
2013-07-04 08:25:00,61.5,58.2,29.73,ESE,120,2.0,3.0,89,0.00,,,0.00,Wunderground v.1.15,2013-07-04 15:25:00,
2013-07-04 08:30:00,62.3,58.4,29.73,ESE,116,0.0,2.0,87,0.00,,,0.00,Wunderground v.1.15,2013-07-04 15:30:00,
2013-07-04 08:35:00,63.1,58.8,29.73,SE,136,0.0,2.0,86,0.00,,,0.00,Wunderground v.1.15,2013-07-04 15:35:00,
2013-07-04 08:40:00,64.0,59.1,29.73,SE,132,0.0,0.0,84,0.00,,,0.00,Wunderground v.1.15,2013-07-04 15:40:00,
2013-07-04 08:45:00,65.2,59.6,29.73,SE,124,0.0,2.0,82,0.00,,,0.00,Wunderground v.1.15,2013-07-04 15:45:00,
2013-07-04 08:51:00,66.0,59.3,29.73,SE,124,0.0,0.0,79,0.00,,,0.00,Wunderground v.1.15,2013-07-04 15:51:00,
2013-07-04 08:56:00,66.8,59.7,29.73,SE,124,0.0,3.0,78,0.00,,,0.00,Wunderground v.1.15,2013-07-04 15:56:00,
2013-07-04 09:01:00,67.3,60.2,29.73,South,172,0.0,1.0,78,0.00,,,0.00,Wunderground v.1.15,2013-07-04 16:01:00,
2013-07-04 09:06:00,67.6,60.1,29.73,WSW,250,1.0,2.0,77,0.00,,,0.00,Wunderground v.1.15,2013-07-04 16:06:00,
2013-07-04 09:11:00,67.3,59.5,29.73,North,356,1.0,1.0,76,0.00,,,0.00,Wunderground v.1.15,2013-07-04 16:11:00,
2013-07-04 09:16:00,66.9,59.1,29.74,West,276,2.0,4.0,76,0.00,,,0.00,Wunderground v.1.15,2013-07-04 16:16:00,
2013-07-04 09:21:00,66.4,58.6,29.74,WSW,257,0.0,4.0,76,0.00,,,0.00,Wunderground v.1.15,2013-07-04 16:21:00,
2013-07-04 09:26:00,66.3,58.9,29.74,WNW,287,4.0,5.0,77,0.00,,,0.00,Wunderground v.1.15,2013-07-04 16:26:00,
2013-07-04 09:31:00,66.6,59.2,29.75,West,279,0.0,1.0,77,0.00,,,0.00,Wunderground v.1.15,2013-07-04 16:31:00,
2013-07-04 09:36:00,66.6,58.8,29.75,North,6,0.0,3.0,76,0.00,,,0.00,Wunderground v.1.15,2013-07-04 16:36:00,
2013-07-04 09:41:00,66.3,58.1,29.75,WSW,245,1.0,4.0,75,0.00,,,0.00,Wunderground v.1.15,2013-07-04 16:41:00,
2013-07-04 09:46:00,64.7,57.3,29.75,SW,231,0.0,5.0,77,0.00,,,0.00,Wunderground v.1.15,2013-07-04 16:46:00,
2013-07-04 09:51:00,64.2,57.5,29.75,SW,223,0.0,3.0,79,0.00,,,0.00,Wunderground v.1.15,2013-07-04 16:51:00,
2013-07-04 09:56:00,63.7,57.1,29.75,WNW,282,2.0,5.0,79,0.00,,,0.00,Wunderground v.1.15,2013-07-04 16:56:00,
2013-07-04 10:01:00,62.6,57.0,29.75,WNW,299,0.0,4.0,82,0.00,,,0.00,Wunderground v.1.15,2013-07-04 17:01:00,
2013-07-04 10:06:00,62.7,57.1,29.75,SSW,192,0.0,4.0,82,0.00,,,0.00,Wunderground v.1.15,2013-07-04 17:06:00,
2013-07-04 10:11:00,63.2,57.6,29.75,ESE,120,0.0,2.0,82,0.00,,,0.00,Wunderground v.1.15,2013-07-04 17:11:00,
2013-07-04 10:16:00,63.9,58.0,29.75,SSE,165,0.0,6.0,81,0.00,,,0.00,Wunderground v.1.15,2013-07-04 17:16:00,
2013-07-04 10:21:00,64.5,57.8,29.75,SE,128,0.0,3.0,79,0.00,,,0.00,Wunderground v.1.15,2013-07-04 17:21:00,
2013-07-04 10:26:00,64.8,57.8,29.75,SSW,192,2.0,4.0,78,0.00,,,0.00,Wunderground v.1.15,2013-07-04 17:26:00,
2013-07-04 10:31:00,65.0,58.0,29.75,SSW,212,0.0,3.0,78,0.00,,,0.00,Wunderground v.1.15,2013-07-04 17:31:00,
2013-07-04 10:36:00,65.6,58.2,29.75,SSE,156,0.0,4.0,77,0.00,,,0.00,Wunderground v.1.15,2013-07-04 17:36:00,
2013-07-04 10:41:00,65.6,57.8,29.75,North,1,0.0,3.0,76,0.00,,,0.00,Wunderground v.1.15,2013-07-04 17:41:00,
2013-07-04 10:46:00,66.3,58.1,29.74,West,277,2.0,4.0,75,0.00,,,0.00,Wunderground v.1.15,2013-07-04 17:46:00,
2013-07-04 10:51:00,65.2,57.4,29.74,West,274,1.0,4.0,76,0.00,,,0.00,Wunderground v.1.15,2013-07-04 17:51:00,
2013-07-04 10:56:00,65.2,57.8,29.74,WSW,252,2.0,5.0,77,0.00,,,0.00,Wunderground v.1.15,2013-07-04 17:56:00,
2013-07-04 11:01:00,65.5,57.7,29.74,West,273,0.0,2.0,76,0.00,,,0.00,Wunderground v.1.15,2013-07-04 18:01:00,
2013-07-04 11:06:00,65.8,58.0,29.74,WSW,257,3.0,4.0,76,0.00,,,0.00,Wunderground v.1.15,2013-07-04 18:06:00,
2013-07-04 11:11:00,66.6,58.1,29.74,SSE,162,0.0,2.0,74,0.00,,,0.00,Wunderground v.1.15,2013-07-04 18:11:00,
2013-07-04 11:16:00,67.1,58.2,29.74,SE,130,3.0,5.0,73,0.00,,,0.00,Wunderground v.1.15,2013-07-04 18:16:00,
2013-07-04 11:21:00,66.6,58.1,29.74,North,1,3.0,3.0,74,0.00,,,0.00,Wunderground v.1.15,2013-07-04 18:21:00,
2013-07-04 11:26:00,66.3,57.4,29.74,NW,311,2.0,7.0,73,0.00,,,0.00,Wunderground v.1.15,2013-07-04 18:26:00,
2013-07-04 11:31:00,66.1,57.9,29.74,SSW,197,1.0,5.0,75,0.00,,,0.00,Wunderground v.1.15,2013-07-04 18:31:00,
2013-07-04 11:36:00,66.8,57.9,29.74,ESE,104,0.0,5.0,73,0.00,,,0.00,Wunderground v.1.15,2013-07-04 18:36:00,
2013-07-04 11:41:00,67.4,58.4,29.74,SE,136,0.0,1.0,73,0.00,,,0.00,Wunderground v.1.15,2013-07-04 18:41:00,
2013-07-04 11:46:00,68.3,58.1,29.74,SSE,158,2.0,3.0,70,0.00,,,0.00,Wunderground v.1.15,2013-07-04 18:46:00,
2013-07-04 11:51:00,68.6,58.8,29.74,WNW,303,2.0,2.0,71,0.00,,,0.00,Wunderground v.1.15,2013-07-04 18:51:00,
2013-07-04 11:56:00,68.8,58.6,29.74,West,264,0.0,5.0,70,0.00,,,0.00,Wunderground v.1.15,2013-07-04 18:56:00,
2013-07-04 12:01:00,69.3,58.7,29.74,ESE,120,3.0,4.0,69,0.00,,,0.00,Wunderground v.1.15,2013-07-04 19:01:00,
2013-07-04 12:07:00,69.4,58.8,29.74,SE,146,1.0,5.0,69,0.00,,,0.00,Wunderground v.1.15,2013-07-04 19:07:00,
2013-07-04 12:12:00,69.3,58.7,29.74,NW,323,2.0,6.0,69,0.00,,,0.00,Wunderground v.1.15,2013-07-04 19:12:00,
2013-07-04 12:17:00,69.3,58.7,29.74,SW,226,1.0,6.0,69,0.00,,,0.00,Wunderground v.1.15,2013-07-04 19:17:00,
2013-07-04 12:22:00,69.6,59.0,29.74,SE,143,0.0,5.0,69,0.00,,,0.00,Wunderground v.1.15,2013-07-04 19:22:00,
2013-07-04 12:27:00,70.6,59.5,29.74,SE,134,0.0,5.0,68,0.00,,,0.00,Wunderground v.1.15,2013-07-04 19:27:00,
2013-07-04 12:32:00,71.3,59.4,29.74,NNW,342,2.0,5.0,66,0.00,,,0.00,Wunderground v.1.15,2013-07-04 19:32:00,
2013-07-04 12:37:00,71.1,59.6,29.74,East,94,0.0,5.0,67,0.00,,,0.00,Wunderground v.1.15,2013-07-04 19:37:00,
2013-07-04 12:42:00,71.5,59.5,29.74,WNW,282,0.0,4.0,66,0.00,,,0.00,Wunderground v.1.15,2013-07-04 19:42:00,
2013-07-04 12:47:00,72.7,60.3,29.74,SW,217,0.0,4.0,65,0.00,,,0.00,Wunderground v.1.15,2013-07-04 19:47:00,
2013-07-04 12:52:00,74.0,60.2,29.74,WNW,284,0.0,4.0,62,0.00,,,0.00,Wunderground v.1.15,2013-07-04 19:52:00,
2013-07-04 12:57:00,74.9,60.1,29.74,North,1,0.0,5.0,60,0.00,,,0.00,Wunderground v.1.15,2013-07-04 19:57:00,
2013-07-04 13:02:00,75.1,60.3,29.73,NW,307,0.0,3.0,60,0.00,,,0.00,Wunderground v.1.15,2013-07-04 20:02:00,
2013-07-04 13:07:00,74.6,59.8,29.73,WSW,237,2.0,7.0,60,0.00,,,0.00,Wunderground v.1.15,2013-07-04 20:07:00,
2013-07-04 13:12:00,74.0,60.2,29.73,SSE,166,1.0,4.0,62,0.00,,,0.00,Wunderground v.1.15,2013-07-04 20:12:00,
2013-07-04 13:17:00,73.7,59.9,29.74,ESE,122,1.0,4.0,62,0.00,,,0.00,Wunderground v.1.15,2013-07-04 20:17:00,
2013-07-04 13:22:00,73.3,59.5,29.74,NW,316,5.0,6.0,62,0.00,,,0.00,Wunderground v.1.15,2013-07-04 20:22:00,
2013-07-04 13:27:00,72.3,59.4,29.74,WNW,291,4.0,6.0,64,0.00,,,0.00,Wunderground v.1.15,2013-07-04 20:27:00,
2013-07-04 13:32:00,71.5,59.1,29.74,West,262,0.0,4.0,65,0.00,,,0.00,Wunderground v.1.15,2013-07-04 20:32:00,
2013-07-04 13:37:00,70.4,58.9,29.74,WSW,245,0.0,7.0,67,0.00,,,0.00,Wunderground v.1.15,2013-07-04 20:37:00,
2013-07-04 13:42:00,70.1,59.5,29.74,WNW,283,2.0,5.0,69,0.00,,,0.00,Wunderground v.1.15,2013-07-04 20:42:00,
2013-07-04 13:47:00,70.1,59.0,29.74,NNW,333,1.0,6.0,68,0.00,,,0.00,Wunderground v.1.15,2013-07-04 20:47:00,
2013-07-04 13:52:00,69.3,59.5,29.74,WSW,251,0.0,3.0,71,0.00,,,0.00,Wunderground v.1.15,2013-07-04 20:52:00,
2013-07-04 13:57:00,69.6,59.0,29.74,SSW,210,1.0,4.0,69,0.00,,,0.00,Wunderground v.1.15,2013-07-04 20:57:00,
2013-07-04 14:02:00,68.9,59.1,29.74,SW,226,0.0,7.0,71,0.00,,,0.00,Wunderground v.1.15,2013-07-04 21:02:00,
2013-07-04 14:07:00,69.1,59.3,29.74,SSE,162,1.0,7.0,71,0.00,,,0.00,Wunderground v.1.15,2013-07-04 21:07:00,
2013-07-04 14:12:00,69.3,59.9,29.74,SSE,154,1.0,2.0,72,0.00,,,0.00,Wunderground v.1.15,2013-07-04 21:12:00,
2013-07-04 14:17:00,68.6,59.2,29.74,SE,146,1.0,5.0,72,0.00,,,0.00,Wunderground v.1.15,2013-07-04 21:17:00,
2013-07-04 14:22:00,68.1,59.9,29.74,North,10,0.0,5.0,75,0.00,,,0.00,Wunderground v.1.15,2013-07-04 21:22:00,
2013-07-04 14:27:00,67.6,59.4,29.74,North,359,1.0,5.0,75,0.00,,,0.00,Wunderground v.1.15,2013-07-04 21:27:00,
2013-07-04 14:32:00,67.6,59.4,29.73,SSE,167,0.0,4.0,75,0.00,,,0.00,Wunderground v.1.15,2013-07-04 21:32:00,
2013-07-04 14:37:00,68.8,60.2,29.73,East,89,1.0,4.0,74,0.00,,,0.00,Wunderground v.1.15,2013-07-04 21:37:00,
2013-07-04 14:42:00,69.9,60.1,29.73,WSW,252,0.0,3.0,71,0.00,,,0.00,Wunderground v.1.15,2013-07-04 21:42:00,
2013-07-04 14:47:00,71.5,60.8,29.73,South,180,0.0,3.0,69,0.00,,,0.00,Wunderground v.1.15,2013-07-04 21:47:00,
2013-07-04 14:52:00,72.1,60.5,29.73,WNW,301,2.0,6.0,67,0.00,,,0.00,Wunderground v.1.15,2013-07-04 21:52:00,
2013-07-04 14:57:00,71.8,60.7,29.73,NW,315,3.0,7.0,68,0.00,,,0.00,Wunderground v.1.15,2013-07-04 21:57:00,
2013-07-04 15:02:00,72.0,60.0,29.72,WNW,290,1.0,6.0,66,0.00,,,0.00,Wunderground v.1.15,2013-07-04 22:02:00,
2013-07-04 15:07:00,71.3,60.2,29.72,NW,310,0.0,6.0,68,0.00,,,0.00,Wunderground v.1.15,2013-07-04 22:07:00,
2013-07-04 15:12:00,71.6,60.1,29.72,WNW,282,7.0,7.0,67,0.00,,,0.00,Wunderground v.1.15,2013-07-04 22:12:00,
2013-07-04 15:17:00,70.8,60.1,29.72,NW,314,1.0,10.0,69,0.00,,,0.00,Wunderground v.1.15,2013-07-04 22:17:00,
2013-07-04 15:22:00,70.1,59.5,29.72,South,176,1.0,9.0,69,0.00,,,0.00,Wunderground v.1.15,2013-07-04 22:22:00,
2013-07-04 15:27:00,70.8,60.1,29.72,West,278,0.0,9.0,69,0.00,,,0.00,Wunderground v.1.15,2013-07-04 22:27:00,
2013-07-04 15:32:00,71.5,60.0,29.71,West,266,0.0,5.0,67,0.00,,,0.00,Wunderground v.1.15,2013-07-04 22:32:00,
2013-07-04 15:37:00,71.1,60.0,29.71,South,181,0.0,10.0,68,0.00,,,0.00,Wunderground v.1.15,2013-07-04 22:37:00,
2013-07-04 15:42:00,70.6,59.5,29.71,South,180,1.0,2.0,68,0.00,,,0.00,Wunderground v.1.15,2013-07-04 22:42:00,
2013-07-04 15:47:00,70.8,59.7,29.71,NNW,342,3.0,6.0,68,0.00,,,0.00,Wunderground v.1.15,2013-07-04 22:47:00,
2013-07-04 15:52:00,70.8,59.3,29.71,West,281,3.0,6.0,67,0.00,,,0.00,Wunderground v.1.15,2013-07-04 22:52:00,
2013-07-04 15:57:00,70.3,59.2,29.71,West,271,0.0,6.0,68,0.00,,,0.00,Wunderground v.1.15,2013-07-04 22:57:00,
2013-07-04 16:02:00,70.3,59.6,29.71,WSW,246,1.0,3.0,69,0.00,,,0.00,Wunderground v.1.15,2013-07-04 23:02:00,
2013-07-04 16:07:00,70.1,59.5,29.71,WNW,292,0.0,6.0,69,0.00,,,0.00,Wunderground v.1.15,2013-07-04 23:07:00,
2013-07-04 16:12:00,69.8,59.2,29.71,North,352,4.0,4.0,69,0.00,,,0.00,Wunderground v.1.15,2013-07-04 23:12:00,
2013-07-04 16:18:00,69.3,59.5,29.71,NW,304,0.0,4.0,71,0.00,,,0.00,Wunderground v.1.15,2013-07-04 23:18:00,
2013-07-04 16:23:00,69.4,59.6,29.71,WNW,292,2.0,3.0,71,0.00,,,0.00,Wunderground v.1.15,2013-07-04 23:23:00,
2013-07-04 16:28:00,69.6,59.4,29.71,SSW,212,0.0,4.0,70,0.00,,,0.00,Wunderground v.1.15,2013-07-04 23:28:00,
2013-07-04 16:33:00,69.9,59.7,29.71,WNW,283,4.0,5.0,70,0.00,,,0.00,Wunderground v.1.15,2013-07-04 23:33:00,
2013-07-04 16:38:00,69.6,59.8,29.71,South,170,0.0,5.0,71,0.00,,,0.00,Wunderground v.1.15,2013-07-04 23:38:00,
2013-07-04 16:43:00,68.9,59.5,29.71,ENE,72,0.0,2.0,72,0.00,,,0.00,Wunderground v.1.15,2013-07-04 23:43:00,
2013-07-04 16:48:00,68.6,59.6,29.71,WSW,257,2.0,4.0,73,0.00,,,0.00,Wunderground v.1.15,2013-07-04 23:48:00,
2013-07-04 16:53:00,67.9,59.3,29.71,West,279,1.0,7.0,74,0.00,,,0.00,Wunderground v.1.15,2013-07-04 23:53:00,
2013-07-04 16:58:00,67.9,59.3,29.71,SSW,192,0.0,7.0,74,0.00,,,0.00,Wunderground v.1.15,2013-07-04 23:58:00,
2013-07-04 17:03:00,67.4,58.4,29.71,WNW,287,1.0,7.0,73,0.00,,,0.00,Wunderground v.1.15,2013-07-05 00:03:00,
2013-07-04 17:08:00,66.3,58.5,29.71,WSW,248,2.0,7.0,76,0.00,,,0.00,Wunderground v.1.15,2013-07-05 00:08:00,
2013-07-04 17:13:00,65.5,58.1,29.71,WNW,298,1.0,5.0,77,0.00,,,0.00,Wunderground v.1.15,2013-07-05 00:13:00,
2013-07-04 17:18:00,65.2,58.5,29.71,West,274,1.0,5.0,79,0.00,,,0.00,Wunderground v.1.15,2013-07-05 00:18:00,
2013-07-04 17:23:00,65.2,58.9,29.71,WSW,238,0.0,2.0,80,0.00,,,0.00,Wunderground v.1.15,2013-07-05 00:23:00,
2013-07-04 17:28:00,65.0,58.7,29.71,East,81,0.0,4.0,80,0.00,,,0.00,Wunderground v.1.15,2013-07-05 00:28:00,
2013-07-04 17:33:00,64.7,58.7,29.71,WNW,284,0.0,5.0,81,0.00,,,0.00,Wunderground v.1.15,2013-07-05 00:33:00,
2013-07-04 17:38:00,64.3,58.7,29.71,West,274,2.0,5.0,82,0.00,,,0.00,Wunderground v.1.15,2013-07-05 00:38:00,
2013-07-04 17:43:00,64.2,58.9,29.71,North,355,0.0,4.0,83,0.00,,,0.00,Wunderground v.1.15,2013-07-05 00:43:00,
2013-07-04 17:48:00,64.3,59.0,29.71,SSE,154,1.0,4.0,83,0.00,,,0.00,Wunderground v.1.15,2013-07-05 00:48:00,
2013-07-04 17:53:00,64.3,59.0,29.71,North,0,2.0,2.0,83,0.00,,,0.00,Wunderground v.1.15,2013-07-05 00:53:00,
2013-07-04 17:58:00,64.0,58.7,29.71,NW,307,0.0,4.0,83,0.00,,,0.00,Wunderground v.1.15,2013-07-05 00:58:00,
2013-07-04 18:03:00,63.5,58.6,29.71,WSW,255,0.0,4.0,84,0.00,,,0.00,Wunderground v.1.15,2013-07-05 01:03:00,
2013-07-04 18:08:00,63.1,58.5,29.71,West,279,1.0,4.0,85,0.00,,,0.00,Wunderground v.1.15,2013-07-05 01:08:00,
2013-07-04 18:13:00,62.4,58.2,29.71,WSW,249,0.0,2.0,86,0.00,,,0.00,Wunderground v.1.15,2013-07-05 01:13:00,
2013-07-04 18:18:00,62.3,58.4,29.72,NE,34,2.0,2.0,87,0.00,,,0.00,Wunderground v.1.15,2013-07-05 01:18:00,
2013-07-04 18:23:00,61.5,57.9,29.72,SSW,199,2.0,5.0,88,0.00,,,0.00,Wunderground v.1.15,2013-07-05 01:23:00,
2013-07-04 18:28:00,61.3,58.0,29.72,NNE,30,0.0,5.0,89,0.00,,,0.00,Wunderground v.1.15,2013-07-05 01:28:00,
2013-07-04 18:29:00,61.3,58.0,29.72,NNE,32,0.0,5.0,89,0.00,,,0.00,Wunderground v.1.15,2013-07-05 01:29:00,
2013-07-04 18:34:00,61.2,57.9,29.72,West,280,3.0,3.0,89,0.00,,,0.00,Wunderground v.1.15,2013-07-05 01:34:00,
2013-07-04 18:39:00,61.0,58.0,29.72,NNW,348,0.0,4.0,90,0.00,,,0.00,Wunderground v.1.15,2013-07-05 01:39:00,
2013-07-04 18:44:00,61.0,58.0,29.72,NNW,348,0.0,0.0,90,0.00,,,0.00,Wunderground v.1.15,2013-07-05 01:44:00,
2013-07-04 18:49:00,60.9,57.9,29.72,ENE,72,0.0,2.0,90,0.00,,,0.00,Wunderground v.1.15,2013-07-05 01:49:00,
2013-07-04 18:54:00,60.7,58.1,29.72,SE,145,0.0,3.0,91,0.00,,,0.00,Wunderground v.1.15,2013-07-05 01:54:00,
2013-07-04 18:59:00,60.5,57.9,29.72,SE,145,0.0,4.0,91,0.00,,,0.00,Wunderground v.1.15,2013-07-05 01:59:00,
2013-07-04 19:04:00,60.2,57.9,29.72,NE,49,1.0,3.0,92,0.00,,,0.00,Wunderground v.1.15,2013-07-05 02:04:00,
2013-07-04 19:09:00,60.1,57.8,29.72,ENE,76,0.0,3.0,92,0.00,,,0.00,Wunderground v.1.15,2013-07-05 02:09:00,
2013-07-04 19:14:00,60.1,57.8,29.72,ENE,76,0.0,2.0,92,0.00,,,0.00,Wunderground v.1.15,2013-07-05 02:14:00,
2013-07-04 19:19:00,59.9,57.6,29.71,East,95,0.0,2.0,92,0.00,,,0.00,Wunderground v.1.15,2013-07-05 02:19:00,
2013-07-04 19:24:00,59.8,57.5,29.71,North,355,0.0,2.0,92,0.00,,,0.00,Wunderground v.1.15,2013-07-05 02:24:00,
2013-07-04 19:29:00,59.8,57.5,29.71,SSW,201,2.0,2.0,92,0.00,,,0.00,Wunderground v.1.15,2013-07-05 02:29:00,
2013-07-04 19:34:00,59.8,57.5,29.72,North,353,0.0,3.0,92,0.00,,,0.00,Wunderground v.1.15,2013-07-05 02:34:00,
2013-07-04 19:39:00,59.6,57.3,29.72,North,353,0.0,3.0,92,0.00,,,0.00,Wunderground v.1.15,2013-07-05 02:39:00,
2013-07-04 19:44:00,59.6,57.6,29.72,North,353,0.0,1.0,93,0.00,,,0.00,Wunderground v.1.15,2013-07-05 02:44:00,
2013-07-04 19:49:00,59.6,57.6,29.72,North,353,0.0,2.0,93,0.00,,,0.00,Wunderground v.1.15,2013-07-05 02:49:00,
2013-07-04 19:54:00,59.5,57.5,29.72,North,353,0.0,2.0,93,0.00,,,0.00,Wunderground v.1.15,2013-07-05 02:54:00,
2013-07-04 19:59:00,59.3,57.3,29.72,North,353,0.0,2.0,93,0.00,,,0.00,Wunderground v.1.15,2013-07-05 02:59:00,
2013-07-04 20:04:00,59.2,57.2,29.72,North,353,0.0,0.0,93,0.00,,,0.00,Wunderground v.1.15,2013-07-05 03:04:00,
2013-07-04 20:09:00,59.0,57.0,29.72,WNW,290,0.0,2.0,93,0.00,,,0.00,Wunderground v.1.15,2013-07-05 03:09:00,
2013-07-04 20:14:00,58.9,57.2,29.72,WNW,290,0.0,0.0,94,0.00,,,0.00,Wunderground v.1.15,2013-07-05 03:14:00,
2013-07-04 20:19:00,58.9,57.2,29.71,WNW,290,0.0,0.0,94,0.00,,,0.00,Wunderground v.1.15,2013-07-05 03:19:00,
2013-07-04 20:24:00,58.7,57.0,29.71,WNW,290,0.0,0.0,94,0.00,,,0.00,Wunderground v.1.15,2013-07-05 03:24:00,
2013-07-04 20:29:00,58.7,57.3,29.71,WNW,290,0.0,0.0,95,0.00,,,0.00,Wunderground v.1.15,2013-07-05 03:29:00,
2013-07-04 20:34:00,58.7,57.3,29.72,WNW,290,0.0,0.0,95,0.00,,,0.00,Wunderground v.1.15,2013-07-05 03:34:00,
2013-07-04 20:39:00,58.6,57.2,29.72,WNW,290,0.0,0.0,95,0.00,,,0.00,Wunderground v.1.15,2013-07-05 03:39:00,
2013-07-04 20:44:00,58.6,57.2,29.72,WNW,290,0.0,0.0,95,0.00,,,0.00,Wunderground v.1.15,2013-07-05 03:44:00,
2013-07-04 20:49:00,58.4,57.0,29.72,WNW,290,0.0,0.0,95,0.00,,,0.00,Wunderground v.1.15,2013-07-05 03:49:00,
2013-07-04 20:54:00,58.4,57.0,29.72,WNW,290,0.0,0.0,95,0.00,,,0.00,Wunderground v.1.15,2013-07-05 03:54:00,
2013-07-04 20:59:00,58.3,56.9,29.72,WNW,290,0.0,0.0,95,0.00,,,0.00,Wunderground v.1.15,2013-07-05 03:59:00,
2013-07-04 21:01:00,58.1,56.7,29.72,WNW,290,0.0,0.0,95,0.00,,,0.00,Wunderground v.1.15,2013-07-05 04:01:00,
2013-07-04 21:07:00,58.1,57.0,29.72,WNW,290,0.0,0.0,96,0.00,,,0.00,Wunderground v.1.15,2013-07-05 04:07:00,
2013-07-04 21:12:00,58.0,56.9,29.72,WNW,290,0.0,0.0,96,0.00,,,0.00,Wunderground v.1.15,2013-07-05 04:12:00,
2013-07-04 21:17:00,57.8,56.7,29.72,WNW,290,0.0,0.0,96,0.00,,,0.00,Wunderground v.1.15,2013-07-05 04:17:00,
2013-07-04 21:22:00,57.6,56.5,29.72,WNW,290,0.0,0.0,96,0.00,,,0.00,Wunderground v.1.15,2013-07-05 04:22:00,
2013-07-04 21:27:00,57.5,56.4,29.72,WNW,290,0.0,0.0,96,0.00,,,0.00,Wunderground v.1.15,2013-07-05 04:27:00,
2013-07-04 21:32:00,57.5,56.4,29.72,WNW,290,0.0,0.0,96,0.00,,,0.00,Wunderground v.1.15,2013-07-05 04:32:00,
2013-07-04 21:37:00,57.3,56.2,29.72,WNW,290,0.0,0.0,96,0.00,,,0.00,Wunderground v.1.15,2013-07-05 04:37:00,
2013-07-04 21:42:00,57.3,56.2,29.72,WNW,290,0.0,0.0,96,0.00,,,0.00,Wunderground v.1.15,2013-07-05 04:42:00,
2013-07-04 21:47:00,57.3,56.2,29.73,WNW,290,0.0,0.0,96,0.00,,,0.00,Wunderground v.1.15,2013-07-05 04:47:00,
2013-07-04 21:52:00,57.2,56.1,29.73,WNW,290,0.0,0.0,96,0.00,,,0.00,Wunderground v.1.15,2013-07-05 04:52:00,
2013-07-04 21:57:00,57.2,56.1,29.73,WNW,290,0.0,0.0,96,0.00,,,0.00,Wunderground v.1.15,2013-07-05 04:57:00,
2013-07-04 22:02:00,57.2,56.1,29.73,WNW,290,0.0,0.0,96,0.00,,,0.00,Wunderground v.1.15,2013-07-05 05:02:00,
2013-07-04 22:07:00,57.2,56.1,29.73,WNW,290,0.0,0.0,96,0.00,,,0.00,Wunderground v.1.15,2013-07-05 05:07:00,
2013-07-04 22:12:00,57.2,56.4,29.73,WNW,290,0.0,0.0,97,0.00,,,0.00,Wunderground v.1.15,2013-07-05 05:12:00,
2013-07-04 22:17:00,57.2,56.4,29.73,WNW,290,0.0,0.0,97,0.00,,,0.00,Wunderground v.1.15,2013-07-05 05:17:00,
2013-07-04 22:22:00,57.0,56.2,29.73,WNW,290,0.0,0.0,97,0.00,,,0.00,Wunderground v.1.15,2013-07-05 05:22:00,
2013-07-04 22:27:00,56.9,56.1,29.73,WNW,290,0.0,0.0,97,0.00,,,0.00,Wunderground v.1.15,2013-07-05 05:27:00,
2013-07-04 22:32:00,56.9,56.1,29.73,WNW,290,0.0,0.0,97,0.00,,,0.00,Wunderground v.1.15,2013-07-05 05:32:00,
2013-07-04 22:37:00,56.9,56.1,29.73,WNW,290,0.0,0.0,97,0.00,,,0.00,Wunderground v.1.15,2013-07-05 05:37:00,
2013-07-04 22:42:00,56.7,55.9,29.73,WNW,290,0.0,0.0,97,0.00,,,0.00,Wunderground v.1.15,2013-07-05 05:42:00,
2013-07-04 22:47:00,56.6,55.8,29.73,WNW,290,0.0,0.0,97,0.00,,,0.00,Wunderground v.1.15,2013-07-05 05:47:00,
2013-07-04 22:52:00,56.6,55.8,29.73,WNW,290,0.0,0.0,97,0.00,,,0.00,Wunderground v.1.15,2013-07-05 05:52:00,
2013-07-04 22:57:00,56.5,55.9,29.73,WNW,290,0.0,0.0,98,0.00,,,0.00,Wunderground v.1.15,2013-07-05 05:57:00,
2013-07-04 23:02:00,56.5,55.9,29.73,WNW,290,0.0,0.0,98,0.00,,,0.00,Wunderground v.1.15,2013-07-05 06:02:00,
2013-07-04 23:07:00,56.5,55.9,29.73,WNW,290,0.0,0.0,98,0.00,,,0.00,Wunderground v.1.15,2013-07-05 06:07:00,
2013-07-04 23:12:00,56.5,55.9,29.73,WNW,290,0.0,0.0,98,0.00,,,0.00,Wunderground v.1.15,2013-07-05 06:12:00,
2013-07-04 23:17:00,56.5,55.9,29.74,WNW,290,0.0,0.0,98,0.00,,,0.00,Wunderground v.1.15,2013-07-05 06:17:00,
2013-07-04 23:22:00,56.5,56.2,29.74,WNW,290,0.0,0.0,99,0.00,,,0.00,Wunderground v.1.15,2013-07-05 06:22:00,
2013-07-04 23:27:00,56.6,56.3,29.74,WNW,290,0.0,0.0,99,0.00,,,0.00,Wunderground v.1.15,2013-07-05 06:27:00,
2013-07-04 23:32:00,56.6,56.3,29.74,WNW,290,0.0,0.0,99,0.00,,,0.00,Wunderground v.1.15,2013-07-05 06:32:00,
2013-07-04 23:37:00,56.7,56.4,29.74,WNW,290,0.0,0.0,99,0.00,,,0.00,Wunderground v.1.15,2013-07-05 06:37:00,
2013-07-04 23:42:00,56.9,56.6,29.74,WNW,290,0.0,0.0,99,0.00,,,0.00,Wunderground v.1.15,2013-07-05 06:42:00,
2013-07-04 23:47:00,56.9,56.9,29.74,WNW,290,0.0,0.0,100,0.00,,,0.00,Wunderground v.1.15,2013-07-05 06:47:00,
2013-07-04 23:52:00,57.0,57.0,29.74,WNW,290,0.0,0.0,100,0.00,,,0.00,Wunderground v.1.15,2013-07-05 06:52:00,
2013-07-04 23:57:00,57.0,57.0,29.74,WNW,290,0.0,2.0,100,0.00,,,0.00,Wunderground v.1.15,2013-07-05 06:57:00,